SCF9626 ZUCK-ZGGG

Flight info

Callsign SCF9626
Flight time N/A
Altitude 39100
Route UNRIX3Y UNRIX W180 LIDMA W182 LAGEX G586 SJG B330 GYA GYA1
Aircraft B77W/H-SDE1E2E3FGHIJ2J3J4J5M1RWXY/LB1D1

Departure

Time 2026-04-26 01:18
Airport Chongqing Jiangbei International Airport (ZUCK)

Arrival

Time N/A
Airport Guangzhou Baiyun International Airport (ZGGG)
Time Latitude Longitude Altitude Speed Heading
2026-04-26 01:07 29.71692 106.65749 1379 ft 1 kts 285°
2026-04-26 01:07 29.71692 106.65750 1379 ft 1 kts 285°
2026-04-26 01:07 29.71688 106.65766 1374 ft 2 kts 285°
2026-04-26 01:07 29.71684 106.65783 1374 ft 3 kts 293°
2026-04-26 01:08 29.71676 106.65800 1376 ft 3 kts 316°
2026-04-26 01:08 29.71667 106.65809 1374 ft 3 kts 349°
2026-04-26 01:08 29.71652 106.65809 1374 ft 3 kts 16°
2026-04-26 01:08 29.71633 106.65802 1374 ft 3 kts 19°
2026-04-26 01:09 29.71622 106.65798 1374 ft 0 kts 15°
2026-04-26 01:11 29.71665 106.65812 1374 ft 13 kts 16°
2026-04-26 01:11 29.71792 106.65853 1375 ft 25 kts 15°
2026-04-26 01:11 29.71958 106.65912 1375 ft 25 kts 24°
2026-04-26 01:12 29.72137 106.66069 1375 ft 25 kts 22°
2026-04-26 01:12 29.72300 106.66135 1376 ft 25 kts 19°
2026-04-26 01:12 29.72412 106.66176 1377 ft 25 kts 17°
2026-04-26 01:12 29.72575 106.66232 1376 ft 25 kts 17°
2026-04-26 01:13 29.72797 106.66309 1376 ft 25 kts 17°
2026-04-26 01:13 29.72963 106.66364 1375 ft 25 kts 15°
2026-04-26 01:13 29.73130 106.66420 1375 ft 25 kts 17°
2026-04-26 01:13 29.73295 106.66478 1376 ft 25 kts 18°
2026-04-26 01:14 29.73458 106.66536 1376 ft 25 kts 17°
2026-04-26 01:14 29.73624 106.66594 1375 ft 25 kts 17°
2026-04-26 01:14 29.73735 106.66633 1374 ft 25 kts 15°
2026-04-26 01:14 29.73900 106.66685 1375 ft 25 kts 15°
2026-04-26 01:15 29.74066 106.66740 1376 ft 25 kts 16°
2026-04-26 01:15 29.74232 106.66795 1376 ft 25 kts 15°
2026-04-26 01:15 29.74398 106.66850 1375 ft 25 kts 16°
2026-04-26 01:15 29.74562 106.66904 1376 ft 23 kts 16°
2026-04-26 01:16 29.74692 106.66948 1375 ft 19 kts 17°
2026-04-26 01:16 29.74769 106.67095 1374 ft 19 kts 110°
2026-04-26 01:16 29.74735 106.67188 1376 ft 11 kts 114°
2026-04-26 01:16 29.74708 106.67237 1376 ft 11 kts 138°
2026-04-26 01:17 29.74636 106.67247 1376 ft 6 kts 193°
2026-04-26 01:17 29.74612 106.67239 1377 ft 0 kts 195°
2026-04-26 01:17 29.74527 106.67212 1375 ft 29 kts 195°
2026-04-26 01:18 29.74064 106.67052 1377 ft 113 kts 197°
2026-04-26 01:18 29.72602 106.66575 1481 ft 200 kts 193°
2026-04-26 01:18 29.71704 106.66310 2152 ft 192 kts 192°
2026-04-26 01:18 29.70445 106.65973 3225 ft 189 kts 187°
2026-04-26 01:19 29.69077 106.66029 3555 ft 207 kts 173°
2026-04-26 01:19 29.67544 106.66070 3748 ft 235 kts 181°
2026-04-26 01:19 29.65846 106.65982 4239 ft 248 kts 182°
2026-04-26 01:19 29.64107 106.65885 5037 ft 252 kts 182°
2026-04-26 01:20 29.61747 106.65768 6000 ft 259 kts 182°
2026-04-26 01:20 29.59932 106.65687 6732 ft 264 kts 182°
2026-04-26 01:20 29.58688 106.65632 7218 ft 265 kts 182°
2026-04-26 01:20 29.56864 106.65552 7947 ft 269 kts 182°
2026-04-26 01:21 29.54969 106.65478 8599 ft 275 kts 182°
2026-04-26 01:21 29.53050 106.65411 9349 ft 278 kts 182°
2026-04-26 01:21 29.51108 106.65344 10051 ft 281 kts 182°
2026-04-26 01:21 29.49104 106.65274 10443 ft 298 kts 182°
2026-04-26 01:22 29.46946 106.65197 10609 ft 322 kts 183°
2026-04-26 01:22 29.44624 106.65115 10787 ft 346 kts 183°
2026-04-26 01:22 29.42153 106.65029 11094 ft 363 kts 183°
2026-04-26 01:22 29.39592 106.64939 11653 ft 372 kts 183°
2026-04-26 01:23 29.37013 106.64847 12324 ft 378 kts 184°
2026-04-26 01:23 29.34380 106.64716 13006 ft 380 kts 188°
2026-04-26 01:23 29.31841 106.63928 13530 ft 379 kts 205°
2026-04-26 01:23 29.29419 106.62655 14053 ft 386 kts 206°
2026-04-26 01:24 29.26967 106.61390 14753 ft 388 kts 205°
2026-04-26 01:24 29.24491 106.60143 15433 ft 390 kts 205°
2026-04-26 01:24 29.21985 106.58902 16090 ft 394 kts 205°
2026-04-26 01:24 29.19490 106.57677 16726 ft 398 kts 205°
2026-04-26 01:25 29.16935 106.56426 17343 ft 401 kts 205°
2026-04-26 01:25 29.14356 106.55165 17987 ft 405 kts 205°
2026-04-26 01:25 29.11708 106.54057 18450 ft 410 kts 195°
2026-04-26 01:25 29.08843 106.53811 18838 ft 416 kts 181°
2026-04-26 01:26 29.05925 106.53910 19251 ft 423 kts 181°
2026-04-26 01:26 29.02975 106.53967 19784 ft 425 kts 182°
2026-04-26 01:26 29.00011 106.53993 20373 ft 427 kts 182°
2026-04-26 01:26 28.97074 106.54002 20925 ft 429 kts 183°
2026-04-26 01:27 28.94080 106.54003 21457 ft 431 kts 182°
2026-04-26 01:27 28.91065 106.54003 21880 ft 436 kts 183°
2026-04-26 01:27 28.88014 106.54007 22326 ft 441 kts 182°
2026-04-26 01:27 28.84936 106.54011 22843 ft 444 kts 182°
2026-04-26 01:28 28.81858 106.54244 23218 ft 449 kts 170°
2026-04-26 01:28 28.78907 106.55545 23550 ft 463 kts 152°
2026-04-26 01:28 28.76382 106.57852 23955 ft 471 kts 135°
2026-04-26 01:28 28.74488 106.60929 24401 ft 479 kts 118°
2026-04-26 01:29 28.73416 106.64484 24791 ft 486 kts 102°
2026-04-26 01:29 28.73272 106.68337 25144 ft 492 kts 83°
2026-04-26 01:29 28.73908 106.72177 25555 ft 494 kts 78°
2026-04-26 01:29 28.74576 106.76022 25971 ft 494 kts 81°
2026-04-26 01:30 28.74743 106.79930 26207 ft 497 kts 98°
2026-04-26 01:30 28.73817 106.83710 26490 ft 497 kts 118°
2026-04-26 01:30 28.71920 106.86957 26954 ft 492 kts 135°
2026-04-26 01:30 28.69361 106.89509 27362 ft 488 kts 148°
2026-04-26 01:31 28.66415 106.91421 27659 ft 489 kts 158°
2026-04-26 01:31 28.63239 106.92627 27915 ft 488 kts 173°
2026-04-26 01:31 28.59870 106.92939 28192 ft 486 kts 180°
2026-04-26 01:31 28.56477 106.93039 28463 ft 489 kts 181°
2026-04-26 01:32 28.53069 106.93115 28797 ft 492 kts 181°
2026-04-26 01:32 28.49637 106.93220 29128 ft 494 kts 180°
2026-04-26 01:32 28.46193 106.93366 29445 ft 496 kts 180°
2026-04-26 01:32 28.42737 106.93545 29828 ft 497 kts 179°
2026-04-26 01:33 28.39291 106.93739 30243 ft 496 kts 179°
2026-04-26 01:33 28.35895 106.93935 30651 ft 494 kts 179°
2026-04-26 01:33 28.32468 106.94131 31015 ft 493 kts 179°
2026-04-26 01:33 28.29043 106.94322 31354 ft 493 kts 179°
2026-04-26 01:34 28.25618 106.94511 31686 ft 492 kts 179°
2026-04-26 01:34 28.22198 106.94700 32022 ft 492 kts 179°
2026-04-26 01:34 28.18782 106.94891 32356 ft 491 kts 179°
2026-04-26 01:34 28.15368 106.95082 32683 ft 491 kts 179°
2026-04-26 01:35 28.11959 106.95273 32992 ft 490 kts 179°
2026-04-26 01:35 28.08553 106.95463 33299 ft 489 kts 180°
2026-04-26 01:35 28.05155 106.95652 33584 ft 489 kts 179°
2026-04-26 01:35 28.01755 106.95837 33811 ft 490 kts 180°
2026-04-26 01:36 27.98401 106.96015 34059 ft 490 kts 180°
2026-04-26 01:36 27.94999 106.96193 34316 ft 489 kts 180°
2026-04-26 01:36 27.91600 106.96371 34529 ft 489 kts 180°
2026-04-26 01:37 27.84795 106.96730 34909 ft 490 kts 180°
2026-04-26 01:37 27.81389 106.96910 35110 ft 490 kts 180°
2026-04-26 01:37 27.77984 106.97090 35314 ft 490 kts 180°
2026-04-26 01:37 27.74578 106.97271 35503 ft 490 kts 180°
2026-04-26 01:38 27.71211 106.97449 35629 ft 492 kts 180°
2026-04-26 01:38 27.64343 106.97811 35787 ft 496 kts 181°
2026-04-26 01:38 27.60887 106.97993 35905 ft 498 kts 181°
2026-04-26 01:39 27.57426 106.98176 36029 ft 498 kts 181°
2026-04-26 01:39 27.53958 106.98359 36153 ft 499 kts 181°
2026-04-26 01:39 27.50481 106.98542 36250 ft 501 kts 181°
2026-04-26 01:40 27.43505 106.98911 36427 ft 503 kts 181°
2026-04-26 01:40 27.36545 106.99285 36591 ft 505 kts 181°
2026-04-26 01:41 27.29510 106.99664 36753 ft 507 kts 181°
2026-04-26 01:41 27.22463 107.00042 36909 ft 508 kts 181°
2026-04-26 01:42 27.15395 107.00420 36994 ft 509 kts 181°
2026-04-26 01:42 27.08320 107.00799 37000 ft 509 kts 181°
2026-04-26 01:43 27.01307 107.01246 36995 ft 509 kts 174°
2026-04-26 01:43 26.97892 107.02355 37017 ft 518 kts 157°
2026-04-26 01:43 26.94840 107.04542 37009 ft 525 kts 140°
2026-04-26 01:43 26.92385 107.07584 37038 ft 530 kts 126°
2026-04-26 01:44 26.90630 107.11216 37003 ft 533 kts 108°
2026-04-26 01:44 26.88690 107.19151 37012 ft 533 kts 104°
2026-04-26 01:45 26.86800 107.27200 37035 ft 536 kts 105°
2026-04-26 01:45 26.84782 107.35260 37028 ft 539 kts 106°
2026-04-26 01:46 26.82709 107.43328 37029 ft 539 kts 106°
2026-04-26 01:46 26.80653 107.51339 37028 ft 539 kts 106°
2026-04-26 01:47 26.78588 107.59398 37026 ft 538 kts 106°
2026-04-26 01:47 26.76518 107.67437 37030 ft 538 kts 106°
2026-04-26 01:48 26.74436 107.75489 37029 ft 539 kts 106°
2026-04-26 01:48 26.72366 107.83478 37022 ft 538 kts 106°
2026-04-26 01:49 26.70278 107.91523 37022 ft 539 kts 106°
2026-04-26 01:49 26.68186 107.99558 37021 ft 538 kts 106°
2026-04-26 01:50 26.66089 108.07596 37020 ft 538 kts 107°
2026-04-26 01:50 26.64004 108.15567 37027 ft 538 kts 107°
2026-04-26 01:51 26.61900 108.23590 37027 ft 538 kts 107°
2026-04-26 01:51 26.59793 108.31609 37034 ft 538 kts 107°
2026-04-26 01:52 26.57703 108.39627 37028 ft 537 kts 105°
2026-04-26 01:52 26.55819 108.47703 37026 ft 537 kts 104°
2026-04-26 01:53 26.54005 108.55726 37031 ft 536 kts 104°
2026-04-26 01:53 26.52141 108.63797 37022 ft 538 kts 105°
2026-04-26 01:54 26.50247 108.71871 37029 ft 537 kts 105°
2026-04-26 01:54 26.48349 108.79937 37021 ft 538 kts 105°
2026-04-26 01:55 26.46460 108.87959 37032 ft 538 kts 105°
2026-04-26 01:55 26.44542 108.96028 37023 ft 537 kts 108°
2026-04-26 01:55 26.43161 108.99886 37017 ft 535 kts 120°
2026-04-26 01:56 26.41199 109.03388 37034 ft 532 kts 129°
2026-04-26 01:56 26.36022 109.09160 37050 ft 524 kts 145°
2026-04-26 01:57 26.30295 109.14134 37031 ft 527 kts 145°
2026-04-26 01:57 26.24523 109.19194 37023 ft 529 kts 144°
2026-04-26 01:58 26.18779 109.24325 37041 ft 530 kts 144°
2026-04-26 01:58 26.13039 109.29481 37016 ft 530 kts 144°
2026-04-26 01:59 26.07339 109.34588 37022 ft 530 kts 144°
2026-04-26 01:59 26.01591 109.39724 37008 ft 529 kts 144°
2026-04-26 02:00 25.95850 109.44845 37016 ft 529 kts 144°
2026-04-26 02:00 25.90108 109.49962 37045 ft 529 kts 144°
2026-04-26 02:01 25.84403 109.55041 37027 ft 529 kts 144°
2026-04-26 02:01 25.78658 109.60148 37036 ft 529 kts 144°
2026-04-26 02:02 25.73190 109.65642 37045 ft 532 kts 139°
2026-04-26 02:02 25.67860 109.71352 37045 ft 534 kts 139°
2026-04-26 02:03 25.62546 109.77021 37035 ft 534 kts 139°
2026-04-26 02:03 25.57184 109.82689 37044 ft 532 kts 139°
2026-04-26 02:04 25.51819 109.88338 37060 ft 532 kts 139°
2026-04-26 02:04 25.46445 109.93990 37053 ft 533 kts 140°
2026-04-26 02:05 25.41064 109.99644 37041 ft 534 kts 139°
2026-04-26 02:05 25.35717 110.05259 37050 ft 534 kts 139°
2026-04-26 02:06 25.30325 110.10913 37050 ft 534 kts 140°
2026-04-26 02:06 25.24932 110.16562 37047 ft 535 kts 140°
2026-04-26 02:07 25.19566 110.22177 37049 ft 535 kts 139°
2026-04-26 02:07 25.14195 110.27852 37041 ft 535 kts 139°
2026-04-26 02:08 25.08828 110.33540 37044 ft 535 kts 139°
2026-04-26 02:08 25.03452 110.39219 37054 ft 536 kts 139°
2026-04-26 02:09 24.98100 110.44864 37048 ft 536 kts 139°
2026-04-26 02:09 24.92723 110.50557 37044 ft 536 kts 139°
2026-04-26 02:10 24.87345 110.56249 37047 ft 536 kts 139°
2026-04-26 02:10 24.81970 110.61926 37051 ft 535 kts 139°
2026-04-26 02:11 24.76590 110.67599 37054 ft 536 kts 139°
2026-04-26 02:11 24.71239 110.73238 37054 ft 537 kts 139°
2026-04-26 02:12 24.65837 110.78927 37039 ft 538 kts 139°
2026-04-26 02:12 24.60495 110.84669 37044 ft 537 kts 138°
2026-04-26 02:13 24.55179 110.90426 37049 ft 537 kts 138°
2026-04-26 02:13 24.49886 110.96136 37048 ft 537 kts 138°
2026-04-26 02:14 24.44542 111.01880 37055 ft 538 kts 138°
2026-04-26 02:14 24.39195 111.07617 37049 ft 538 kts 138°
2026-04-26 02:15 24.33875 111.13321 37052 ft 538 kts 138°
2026-04-26 02:15 24.28527 111.19051 37049 ft 537 kts 138°
2026-04-26 02:16 24.23116 111.24683 37050 ft 534 kts 144°
2026-04-26 02:16 24.17087 111.29358 37061 ft 529 kts 154°
2026-04-26 02:17 24.10573 111.33029 37071 ft 526 kts 158°
2026-04-26 02:17 24.04057 111.36579 37065 ft 527 kts 158°
2026-04-26 02:18 23.97502 111.40201 37051 ft 528 kts 157°
2026-04-26 02:18 23.90953 111.43850 37046 ft 528 kts 157°
2026-04-26 02:19 23.84416 111.47492 37050 ft 526 kts 157°
2026-04-26 02:19 23.77938 111.51094 37047 ft 526 kts 157°
2026-04-26 02:20 23.71423 111.54709 37053 ft 526 kts 157°
2026-04-26 02:20 23.64893 111.58330 37058 ft 527 kts 157°
2026-04-26 02:21 23.58350 111.61953 37048 ft 528 kts 157°
2026-04-26 02:21 23.51848 111.65551 37043 ft 527 kts 157°
2026-04-26 02:22 23.45317 111.69161 37023 ft 525 kts 157°
2026-04-26 02:22 23.42074 111.70953 36809 ft 520 kts 157°
2026-04-26 02:22 23.38867 111.72726 36367 ft 514 kts 157°
2026-04-26 02:22 23.35692 111.74482 35886 ft 510 kts 157°
2026-04-26 02:23 23.32536 111.76225 35281 ft 509 kts 157°
2026-04-26 02:23 23.29370 111.77972 34539 ft 511 kts 156°
2026-04-26 02:23 23.26194 111.79728 33806 ft 511 kts 154°
2026-04-26 02:23 23.23279 111.81873 32906 ft 518 kts 138°
2026-04-26 02:24 23.20968 111.84888 32153 ft 521 kts 122°
2026-04-26 02:24 23.19420 111.88417 31511 ft 518 kts 107°
2026-04-26 02:24 23.18612 111.92211 30802 ft 514 kts 101°
2026-04-26 02:24 23.17909 111.96017 30036 ft 514 kts 101°
2026-04-26 02:25 23.17192 111.99812 29345 ft 511 kts 101°
2026-04-26 02:25 23.16455 112.03567 28855 ft 504 kts 102°
2026-04-26 02:25 23.15705 112.07258 28361 ft 498 kts 102°
2026-04-26 02:25 23.14946 112.10915 27803 ft 494 kts 102°
2026-04-26 02:26 23.14187 112.14536 27227 ft 491 kts 102°
2026-04-26 02:26 23.13439 112.18090 26673 ft 487 kts 102°
2026-04-26 02:26 23.12687 112.21667 26140 ft 484 kts 102°
2026-04-26 02:26 23.11942 112.25216 25634 ft 480 kts 102°
2026-04-26 02:27 23.11202 112.28740 25146 ft 476 kts 102°
2026-04-26 02:27 23.10468 112.32238 24651 ft 473 kts 102°
2026-04-26 02:27 23.09738 112.35712 24137 ft 471 kts 103°
2026-04-26 02:27 23.09011 112.39165 23635 ft 467 kts 102°
2026-04-26 02:28 23.08289 112.42590 23116 ft 464 kts 103°
2026-04-26 02:28 23.07581 112.45944 22648 ft 459 kts 103°
2026-04-26 02:28 23.06925 112.49309 22175 ft 452 kts 97°
2026-04-26 02:28 23.06747 112.52701 21649 ft 449 kts 89°
2026-04-26 02:29 23.06826 112.56071 21164 ft 445 kts 88°
2026-04-26 02:29 23.06922 112.59412 20706 ft 441 kts 88°
2026-04-26 02:29 23.06980 112.62724 20271 ft 436 kts 89°
2026-04-26 02:29 23.06997 112.66000 19840 ft 432 kts 90°
2026-04-26 02:30 23.07062 112.69234 19347 ft 425 kts 83°
2026-04-26 02:30 23.07840 112.72277 18750 ft 425 kts 64°